| time (UTC) | temp F | wind direction | speed knots | gust knots | rain 1hr in | rain 24hr in | rain mn in | humidity % | barometer mb |
| 20260506111111 | 59 | 51 | 0.9 | 11.3 | 0.00 | 0.00 | 0.00 | 60 | 10.6 |
| 20260506110111 | 59 | 58 | 4.3 | 9.6 | 0.00 | 0.00 | 0.00 | 56 | 10.7 |
| 20260506105111 | 60 | 30 | 6.1 | 10.4 | 0.00 | 0.00 | 0.00 | 58 | 10.6 |
| 20260506104111 | 59 | 69 | 4.3 | 9.6 | 0.00 | 0.00 | 0.00 | 63 | 10.7 |
| 20260506103111 | 59 | 29 | 7.0 | 9.6 | 0.00 | 0.00 | 0.00 | 60 | 10.8 |
| 20260506102111 | 60 | 53 | 4.3 | 10.4 | 0.00 | 0.00 | 0.00 | 62 | 10.9 |
| 20260506101111 | 59 | 304 | 5.2 | 9.6 | 0.00 | 0.00 | 0.00 | 58 | 10.9 |
| 20260506100111 | 58 | 56 | 6.1 | 11.3 | 0.00 | 0.00 | 0.00 | 59 | 10.9 |
| 20260506095111 | 58 | 36 | 3.5 | 7.0 | 0.00 | 0.00 | 0.00 | 62 | 11.0 |
| 20260506094111 | 57 | 355 | 4.3 | 7.0 | 0.00 | 0.00 | 0.00 | 59 | 11.0 |
| 20260506093111 | 58 | 61 | 3.5 | 6.1 | 0.00 | 0.00 | 0.00 | 57 | 11.0 |
| 20260506091111 | 59 | 295 | 3.5 | 11.3 | 0.00 | 0.00 | 0.00 | 61 | 11.0 |
| 20260506090111 | 59 | 38 | 7.8 | 11.3 | 0.00 | 0.00 | 0.00 | 60 | 11.1 |
| 20260506085111 | 58 | 27 | 3.5 | 10.4 | 0.00 | 0.00 | 0.00 | 58 | 11.0 |
| 20260506084111 | 58 | 71 | 4.3 | 11.3 | 0.00 | 0.00 | 0.00 | 61 | 11.0 |
| 20260506083111 | 58 | 62 | 6.1 | 10.4 | 0.00 | 0.00 | 0.00 | 59 | 10.9 |
| 20260506082111 | 57 | 51 | 4.3 | 12.2 | 0.00 | 0.00 | 0.00 | 62 | 11.0 |
| 20260506081111 | 57 | 61 | 7.0 | 9.6 | 0.00 | 0.00 | 0.00 | 62 | 11.0 |
| 20260506080111 | 56 | 53 | 4.3 | 12.2 | 0.00 | 0.00 | 0.00 | 64 | 11.0 |
| 20260506073111 | 54 | 59 | 2.6 | 6.1 | 0.00 | 0.00 | 0.00 | 70 | 10.9 |
| 20260506072111 | 53 | 61 | 4.3 | 7.0 | 0.00 | 0.00 | 0.00 | 76 | 10.9 |
| 20260506070111 | 51 | 59 | 3.5 | 9.6 | 0.00 | 0.00 | 0.00 | 81 | 10.8 |
| 20260506062111 | 47 | 19 | 3.5 | 5.2 | 0.00 | 0.00 | 0.00 | 84 | 11.0 |
| 20260506060111 | 45 | 26 | 5.2 | 7.0 | 0.00 | 0.00 | 0.00 | 84 | 11.0 |
| 20260506051111 | 42 | 40 | 3.5 | 6.1 | 0.00 | 0.00 | 0.00 | 85 | 11.1 |
| 20260506050111 | 41 | 55 | 4.3 | 5.2 | 0.00 | 0.00 | 0.00 | 85 | 11.1 |
| 20260506045111 | 41 | 32 | 3.5 | 8.7 | 0.00 | 0.00 | 0.00 | 85 | 11.1 |
| 20260506044111 | 40 | 36 | 4.3 | 8.7 | 0.00 | 0.00 | 0.00 | 85 | 11.1 |
| 20260506043111 | 40 | 38 | 3.5 | 7.0 | 0.00 | 0.00 | 0.00 | 86 | 11.1 |
| 20260506042111 | 40 | 36 | 3.5 | 6.1 | 0.00 | 0.00 | 0.00 | 86 | 11.2 |
| 20260506040110 | 40 | 5 | 4.3 | 6.1 | 0.00 | 0.00 | 0.00 | 86 | 11.2 |
| 20260506035111 | 40 | 30 | 1.7 | 7.0 | 0.00 | 0.00 | 0.00 | 86 | 11.3 |
| 20260506034111 | 40 | 19 | 3.5 | 6.1 | 0.00 | 0.00 | 0.00 | 86 | 11.2 |
| 20260506033111 | 40 | 19 | 4.3 | 6.1 | 0.00 | 0.00 | 0.00 | 85 | 11.2 |
| 20260506031110 | 40 | 34 | 4.3 | 6.1 | 0.00 | 0.00 | 0.00 | 86 | 11.3 |
| 20260506030111 | 40 | 42 | 3.5 | 6.1 | 0.00 | 0.00 | 0.00 | 86 | 11.3 |
| 20260506025111 | 40 | 48 | 2.6 | 7.0 | 0.00 | 0.00 | 0.00 | 86 | 11.3 |
| 20260506024110 | 40 | 23 | 4.3 | 6.1 | 0.00 | 0.00 | 0.00 | 86 | 11.4 |
| 20260506023110 | 40 | 39 | 3.5 | 5.2 | 0.00 | 0.00 | 0.00 | 86 | 11.4 |
| 20260506022111 | 40 | 44 | 3.5 | 6.1 | 0.00 | 0.00 | 0.00 | 86 | 11.5 |
| 20260506021110 | 40 | 5 | 2.6 | 7.0 | 0.00 | 0.00 | 0.00 | 86 | 11.5 |
| 20260506020110 | 40 | 35 | 2.6 | 5.2 | 0.00 | 0.00 | 0.00 | 85 | 11.5 |
| 20260506014110 | 41 | 16 | 4.3 | 6.1 | 0.00 | 0.00 | 0.00 | 84 | 11.5 |
| 20260506012110 | 42 | 34 | 2.6 | 6.1 | 0.00 | 0.00 | 0.00 | 84 | 11.4 |
| 20260506011111 | 42 | 25 | 3.5 | 5.2 | 0.00 | 0.00 | 0.00 | 83 | 11.4 |
| 20260506010111 | 42 | 32 | 2.6 | 6.1 | 0.00 | 0.00 | 0.00 | 83 | 11.4 |
| 20260506004111 | 43 | 24 | 1.7 | 1.7 | 0.00 | 0.00 | 0.00 | 83 | 11.4 |
| 20260506003111 | 43 | 13 | 0.0 | 0.9 | 0.00 | 0.00 | 0.00 | 83 | 11.3 |
| 20260506002111 | 43 | 16 | 0.0 | 0.0 | 0.00 | 0.00 | 0.00 | 82 | 11.2 |
| 20260506001111 | 43 | 16 | 0.0 | 0.0 | 0.00 | 0.00 | 0.00 | 82 | 11.2 |
| 20260506000110 | 44 | 16 | 0.0 | 0.0 | 0.00 | 0.00 | 0.00 | 81 | 11.3 |
| 20260505232110 | 44 | 19 | 0.0 | 4.3 | 0.00 | 0.00 | 0.00 | 79 | 11.3 |
| 20260505231111 | 45 | 20 | 0.9 | 3.5 | 0.00 | 0.00 | 0.00 | 79 | 11.3 |
| 20260505230110 | 45 | 338 | 1.7 | 4.3 | 0.00 | 0.00 | 0.00 | 78 | 11.3 |
| 20260505224110 | 47 | 5 | 1.7 | 5.2 | 0.00 | 0.00 | 0.00 | 77 | 11.5 |
| 20260505223110 | 47 | 9 | 2.6 | 6.1 | 0.00 | 0.00 | 0.00 | 76 | 11.4 |
| 20260505222110 | 48 | 360 | 0.9 | 4.3 | 0.00 | 0.00 | 0.00 | 75 | 11.4 |
| 20260505221110 | 48 | 28 | 4.3 | 7.0 | 0.00 | 0.00 | 0.00 | 75 | 11.5 |
| 20260505220111 | 48 | 15 | 0.9 | 3.5 | 0.00 | 0.00 | 0.00 | 76 | 11.5 |
| 20260505215110 | 48 | 20 | 1.7 | 5.2 | 0.00 | 0.00 | 0.00 | 76 | 11.5 |
| 20260505214111 | 48 | 17 | 1.7 | 3.5 | 0.00 | 0.00 | 0.00 | 78 | 11.6 |
| 20260505213111 | 47 | 16 | 0.0 | 0.9 | 0.00 | 0.00 | 0.00 | 79 | 11.7 |
| 20260505212110 | 48 | 16 | 0.9 | 1.7 | 0.00 | 0.00 | 0.00 | 78 | 11.6 |
| 20260505210110 | 49 | 18 | 0.0 | 4.3 | 0.00 | 0.00 | 0.00 | 76 | 11.7 |
| 20260505205110 | 49 | 302 | 0.9 | 4.3 | 0.00 | 0.00 | 0.00 | 76 | 11.7 |
| 20260505204111 | 50 | 309 | 0.9 | 4.3 | 0.00 | 0.00 | 0.00 | 75 | 11.7 |
| 20260505203110 | 50 | 335 | 0.9 | 1.7 | 0.00 | 0.00 | 0.00 | 74 | 11.7 |
| 20260505202111 | 50 | 304 | 1.7 | 7.0 | 0.00 | 0.00 | 0.00 | 74 | 11.5 |
| 20260505200111 | 51 | 302 | 3.5 | 5.2 | 0.00 | 0.00 | 0.00 | 71 | 11.5 |
| 20260505195110 | 52 | 309 | 1.7 | 4.3 | 0.00 | 0.00 | 0.00 | 69 | 11.5 |
| 20260505194111 | 53 | 337 | 2.6 | 5.2 | 0.00 | 0.00 | 0.00 | 68 | 11.3 |
| 20260505193111 | 53 | 22 | 4.3 | 5.2 | 0.00 | 0.00 | 0.00 | 68 | 11.3 |
| 20260505192110 | 54 | 306 | 1.7 | 3.5 | 0.00 | 0.00 | 0.00 | 70 | 11.3 |
| 20260505191111 | 54 | 19 | 0.9 | 1.7 | 0.00 | 0.00 | 0.00 | 70 | 11.1 |
| 20260505190110 | 54 | 19 | 0.0 | 0.0 | 0.00 | 0.00 | 0.00 | 71 | 11.0 |
| 20260505185110 | 54 | 5 | 0.0 | 0.9 | 0.00 | 0.00 | 0.00 | 71 | 10.8 |
| 20260505184111 | 54 | 5 | 0.9 | 0.9 | 0.00 | 0.00 | 0.00 | 71 | 10.9 |
| 20260505183110 | 55 | 32 | 0.0 | 0.9 | 0.00 | 0.00 | 0.00 | 68 | 10.8 |
| 20260505182111 | 54 | 19 | 0.9 | 1.7 | 0.00 | 0.00 | 0.00 | 71 | 10.8 |
| 20260505181110 | 55 | 305 | 0.0 | 1.7 | 0.00 | 0.00 | 0.00 | 70 | 10.9 |
| 20260505180110 | 54 | 305 | 3.5 | 4.3 | 0.00 | 0.00 | 0.00 | 70 | 10.9 |
| 20260505174110 | 55 | 317 | 2.6 | 7.0 | 0.00 | 0.00 | 0.00 | 68 | 10.9 |
| 20260505173111 | 56 | 345 | 0.9 | 6.1 | 0.00 | 0.00 | 0.00 | 64 | 10.9 |
| 20260505172110 | 55 | 360 | 3.5 | 5.2 | 0.00 | 0.00 | 0.00 | 71 | 11.0 |
| 20260505170110 | 56 | 308 | 2.6 | 6.1 | 0.00 | 0.00 | 0.00 | 67 | 11.1 |
| 20260505165110 | 57 | 323 | 2.6 | 6.1 | 0.00 | 0.00 | 0.00 | 67 | 11.0 |
| 20260505164110 | 57 | 317 | 5.2 | 8.7 | 0.00 | 0.00 | 0.00 | 67 | 11.1 |
| 20260505163110 | 56 | 313 | 4.3 | 8.7 | 0.00 | 0.00 | 0.00 | 68 | 11.1 |
| 20260505162110 | 57 | 323 | 5.2 | 9.6 | 0.00 | 0.00 | 0.00 | 67 | 11.1 |
| 20260505161110 | 57 | 311 | 3.5 | 10.4 | 0.00 | 0.00 | 0.00 | 67 | 11.0 |
| 20260505160110 | 57 | 318 | 5.2 | 10.4 | 0.00 | 0.00 | 0.00 | 67 | 11.1 |
| 20260505152110 | 58 | 287 | 3.5 | 11.3 | 0.00 | 0.00 | 0.00 | 65 | 11.1 |
| 20260505140110 | 61 | 309 | 5.2 | 9.6 | 0.00 | 0.00 | 0.00 | 61 | 11.2 |
| 20260505130110 | 60 | 37 | 0.9 | 1.7 | 0.00 | 0.00 | 0.00 | 61 | 11.6 |
| 20260505124110 | 60 | 286 | 5.2 | 8.7 | 0.00 | 0.00 | 0.00 | 57 | 11.7 |
| 20260505122110 | 58 | 34 | 0.0 | 4.3 | 0.00 | 0.00 | 0.00 | 63 | 11.8 |
| 20260505121110 | 56 | 314 | 1.7 | 5.2 | 0.00 | 0.00 | 0.00 | 63 | 12.0 |
| 20260505115110 | 56 | 13 | 0.0 | 8.7 | 0.00 | 0.00 | 0.00 | 64 | 12.0 |
| 20260505113110 | 60 | 75 | 3.5 | 6.1 | 0.00 | 0.00 | 0.00 | 60 | 12.0 |